RH
5 5 5 5 5 5 5 4 4 4 3 3 3 3 3 3 3 3 3 3 3 3 3 2 2 2 2 2 2 2 3 2 2 2 2 2 2 2 2 2 3 3 3 3 3 3 3 3 3 3 3 4 4 4 4 4 5 5 5 5 6 7 7 8 10 12 15 17 19 21 23 25 28 31 32 30 26 25 25 26 26 25 24 22 22
5 5 4 5 5 5 5 5 4 4 4 3 3 3 3 3 3 3 3 3 3 3 3 2 2 2 2 2 2 2 2 2 3 2 2 2 2 2 2 2 2 2 2 3 3 3 3 3 3 3 3 3 4 4 4 4 5 4 4 5 5 5 6 6 7 8 11 13 15 17 19 21 23 26 30 32 30 26 24 25 26 26 27 26 24
5 5 5 5 5 5 5 5 5 4 4 4 4 3 3 3 3 3 3 3 3 3 3 3 3 2 2 2 2 2 2 2 2 3 2 2 2 2 2 2 2 2 2 2 3 3 3 3 3 3 3 3 3 4 4 4 4 4 5 5 4 5 5 5 6 6 8 10 11 13 15 17 19 21 25 29 30 29 25 24 24 25 26 27 27
5 5 5 5 5 5 5 5 5 5 4 4 4 3 3 3 3 3 3 3 3 3 3 3 3 3 2 2 2 2 2 2 2 3 3 3 3 2 2 2 2 2 2 2 2 3 3 3 3 3 3 3 3 3 3 4 4 4 4 4 4 5 4 4 5 5 6 7 8 10 11 13 15 17 19 23 26 28 27 25 23 24 24 24 26
5 5 5 5 5 5 5 5 5 5 5 4 4 4 3 3 3 3 3 3 3 3 3 3 3 3 3 3 2 2 2 2 2 3 3 3 3 3 3 3 3 3 3 3 2 2 3 3 3 3 3 3 3 3 3 3 4 4 4 4 4 4 4 4 4 4 5 5 6 7 8 10 11 13 15 17 21 24 27 26 23 22 23 23 24
6 5 5 5 5 5 5 5 5 5 5 4 4 4 4 3 3 3 3 3 3 3 3 3 3 3 3 3 3 2 2 2 2 2 3 3 3 3 3 3 3 3 3 3 3 3 3 3 3 3 3 3 3 3 3 3 3 4 4 4 4 4 4 4 4 4 4 4 5 6 6 7 9 10 12 13 16 19 22 24 23 21 21 23 24
6 6 5 5 5 5 5 5 4 5 5 5 4 4 4 3 3 3 3 3 3 3 3 3 3 3 3 3 3 3 2 2 2 2 2 2 3 3 3 3 3 3 3 3 3 3 3 3 3 3 3 3 3 3 3 3 3 3 4 4 4 4 4 4 4 4 4 4 5 5 5 6 6 8 9 10 12 15 17 20 22 22 21 21 22
7 6 6 5 5 5 5 5 5 4 5 5 5 4 4 4 3 3 3 3 3 3 3 3 3 3 3 3 3 3 3 2 2 2 2 2 2 3 3 3 3 3 3 3 3 3 3 3 3 3 3 3 3 3 3 3 3 3 3 3 4 4 4 4 4 4 4 4 5 5 5 5 5 6 6 8 9 11 13 15 18 20 21 20 20
7 7 6 5 6 6 6 6 5 5 5 4 5 5 4 4 4 3 3 3 3 3 3 3 3 3 3 3 3 3 3 3 3 2 2 2 2 2 3 3 3 3 3 3 3 3 3 3 3 3 3 3 3 3 3 3 3 3 3 3 3 4 4 4 4 4 4 5 5 5 5 5 5 5 5 6 7 8 10 11 13 15 17 18 18
9 7 7 6 5 6 5 6 6 5 5 5 5 5 5 4 4 4 3 3 3 3 3 3 3 3 3 3 3 3 3 3 3 3 3 2 2 2 2 2 3 3 3 3 3 3 3 3 3 3 3 3 3 3 3 3 3 3 3 3 3 3 3 4 4 4 4 5 5 5 5 5 5 5 5 5 6 6 7 8 9 11 12 14 15
11 8 7 6 6 6 5 6 6 6 6 5 4 5 5 5 4 4 4 3 3 3 3 3 3 3 3 3 3 3 3 3 3 3 3 3 2 2 2 2 2 2 3 3 3 3 3 3 3 3 3 3 3 3 3 3 3 3 3 3 3 3 3 3 4 4 4 4 5 5 5 5 5 5 6 5 6 6 6 6 7 8 9 10 11
13 10 8 7 6 6 6 5 6 6 6 6 5 5 5 5 5 5 4 4 3 3 3 3 3 3 4 3 3 3 3 3 3 3 3 3 3 3 2 2 2 2 2 3 3 3 4 4 4 4 3 3 3 3 3 3 3 3 3 3 3 3 3 3 3 3 4 4 4 5 5 5 6 6 6 6 6 6 6 6 6 6 7 8 8
14 12 10 8 7 6 6 5 6 6 6 6 6 5 5 5 5 5 5 4 4 3 3 4 3 3 3 3 4 4 3 3 3 3 3 3 3 3 3 3 2 2 2 2 2 3 3 3 4 4 4 4 4 3 4 3 3 3 3 3 3 3 3 3 3 3 4 4 4 4 5 5 6 6 6 6 6 6 7 7 7 6 7 7 7
16 15 11 9 8 7 6 6 6 6 6 6 6 5 5 5 5 5 5 5 4 4 3 3 4 3 4 3 3 4 4 4 4 3 3 3 3 4 4 3 3 3 2 2 2 2 3 3 3 4 4 4 4 4 4 4 4 4 4 3 4 4 3 3 3 3 3 3 4 4 4 4 5 5 5 6 6 6 7 7 7 6 6 6 7
18 17 14 11 9 7 7 6 5 6 6 6 7 6 5 5 5 5 5 5 5 5 4 4 3 3 4 4 3 4 4 4 4 4 3 3 3 3 4 4 4 3 3 3 3 2 2 2 2 3 3 4 4 4 4 4 4 4 4 4 4 4 4 4 4 4 3 3 3 3 3 3 4 4 4 4 5 5 6 6 6 6 6 6 7
20 19 17 13 10 8 8 7 6 5 6 6 7 7 6 6 5 5 6 6 5 5 5 4 4 4 4 4 4 3 4 4 4 4 4 4 3 3 3 4 4 4 4 3 3 3 3 3 2 2 3 3 3 4 4 4 4 4 4 4 4 4 4 4 4 4 4 4 4 4 4 3 3 3 3 4 4 4 4 5 6 6 6 6 7
24 21 20 16 12 9 8 8 7 5 6 6 6 7 6 6 6 5 5 6 6 6 5 5 5 4 4 4 4 4 4 4 4 4 4 4 4 3 3 3 3 4 4 4 4 4 3 3 3 3 3 2 2 3 3 4 4 4 4 4 4 4 4 4 4 4 4 4 4 4 4 4 4 4 3 3 3 3 4 4 4 5 5 5 6
29 24 23 19 15 11 8 8 8 6 6 6 6 6 7 6 6 6 5 6 6 6 6 6 5 5 4 4 4 4 4 4 4 4 4 4 4 4 4 4 3 3 4 4 4 4 4 4 4 3 3 3 3 3 3 3 3 3 4 4 4 4 4 4 4 4 4 4 4 4 4 4 4 4 4 4 4 4 4 4 4 4 4 4 5
33 26 26 23 19 15 9 8 9 7 6 6 6 6 7 6 6 6 5 5 6 5 6 6 6 6 6 5 4 4 4 4 4 4 4 4 4 4 4 4 4 3 4 4 4 4 4 4 4 4 4 4 4 4 3 3 3 3 3 3 3 4 4 4 4 4 4 4 4 4 4 4 4 4 4 4 4 4 4 4 4 4 4 4 4
36 28 28 26 22 18 12 8 8 8 7 6 6 6 7 7 7 6 5 5 5 5 6 6 6 6 6 6 6 4 4 4 4 4 4 4 4 4 4 4 4 4 4 3 3 4 4 4 4 4 4 4 4 5 4 4 4 3 3 3 3 3 3 3 4 4 4 4 4 4 4 4 4 5 5 5 5 5 5 5 5 4 4 4 4
38 30 30 29 25 22 17 10 8 8 8 7 6 6 6 7 7 7 6 5 5 5 6 6 6 6 6 7 7 6 5 5 4 4 4 4 4 4 4 4 4 4 4 4 4 4 4 4 4 4 4 4 4 5 5 5 5 4 4 4 3 3 3 3 3 3 3 4 4 4 5 5 5 5 5 5 5 4 4 4 4 4 4 4 4
40 32 30 32 29 25 21 14 9 8 8 8 7 6 6 7 7 8 7 6 5 5 5 5 6 6 6 6 7 7 7 6 5 5 5 5 5 4 4 5 4 4 4 4 4 4 4 4 4 4 4 4 4 5 5 5 5 4 4 4 4 3 3 3 3 3 3 3 3 4 4 4 4 5 5 5 4 4 5 4 4 4 4 4 5
41 34 31 34 32 28 25 19 13 9 8 8 8 7 7 7 7 8 8 7 6 6 5 5 5 5 6 6 6 6 7 7 6 6 5 5 5 5 5 5 4 5 5 4 4 4 4 4 4 4 4 4 4 5 5 5 5 4 4 4 4 4 4 4 4 4 4 4 4 4 3 3 3 3 3 4 4 4 4 4 4 5 5 4 5
41 36 32 34 34 32 29 25 18 11 8 8 8 7 7 7 7 7 8 8 7 6 6 6 5 5 6 6 6 6 6 7 8 7 7 6 5 5 5 5 5 5 5 5 4 4 4 4 4 4 4 4 4 4 4 5 5 5 5 4 4 4 4 4 4 4 4 4 4 4 4 3 3 3 3 3 3 3 3 4 4 4 4 5 5
42 39 34 34 36 34 32 30 25 18 10 8 8 7 7 7 7 7 8 8 8 7 6 6 6 6 6 6 6 6 6 7 8 8 8 8 7 6 6 5 6 5 5 5 5 4 4 4 4 4 4 4 4 4 4 4 4 4 4 4 5 5 4 4 5 4 4 4 4 4 4 3 3 3 3 3 3 3 3 3 3 3 3 3 4
40 40 36 35 36 36 34 32 31 26 17 10 8 8 7 6 7 7 7 8 8 8 7 6 6 6 6 6 6 6 6 7 8 9 10 9 8 8 6 6 6 6 6 5 5 4 5 4 4 4 4 4 4 4 4 4 4 4 5 5 5 5 5 5 5 5 5 5 5 4 4 3 3 3 3 3 4 4 3 3 3 3 3 3 3
38 39 37 37 38 38 37 35 33 31 25 16 9 8 8 7 7 7 7 7 8 8 8 7 7 6 7 6 6 6 7 7 7 8 10 11 10 9 8 7 6 6 6 6 6 5 5 5 4 4 4 4 4 4 4 4 4 4 4 5 5 5 5 5 5 5 5 5 5 5 4 4 4 4 4 4 4 4 3 3 3 3 3 3 3
36 39 38 38 39 40 40 38 35 34 31 24 15 10 9 8 7 7 6 6 7 8 8 8 7 7 7 7 7 7 7 7 7 8 8 10 11 11 10 9 8 7 6 6 6 6 5 5 5 5 4 4 4 4 4 4 4 4 4 5 5 5 5 5 5 5 5 5 5 5 4 5 4 4 4 4 4 4 4 3 4 4 4 4 4
35 38 38 38 40 41 41 40 38 35 34 30 23 15 11 9 8 7 7 7 7 7 8 8 8 7 7 7 7 7 7 7 7 7 8 9 10 11 11 11 10 9 8 7 6 6 6 6 5 5 5 5 4 4 5 4 4 4 4 4 5 5 5 5 5 5 5 5 5 5 5 5 5 4 4 5 5 5 4 4 4 4 4 4 4
35 38 37 37 39 40 41 41 39 37 35 33 28 21 16 13 10 7 7 7 7 7 7 7 8 7 7 7 7 7 7 7 7 7 8 8 9 10 11 12 12 11 11 10 8 7 6 6 6 5 5 5 5 5 5 4 4 5 4 4 5 4 5 5 5 5 5 5 5 5 5 5 5 4 4 5 5 5 5 4 5 5 5 5 4
35 38 37 37 38 40 41 41 39 38 36 34 31 24 19 18 15 11 8 7 6 7 7 7 8 7 7 7 7 7 7 7 7 7 7 7 8 9 10 12 12 12 13 12 11 10 8 7 6 6 6 5 5 5 5 5 5 5 4 4 5 4 5 5 5 5 5 5 5 5 5 5 5 4 4 5 5 5 5 5 5 5 5 5 4
35 38 38 37 38 40 42 42 40 39 36 35 33 27 20 17 17 15 12 9 7 7 7 7 8 8 7 7 7 7 7 8 7 7 7 7 8 8 9 11 13 13 13 13 13 12 11 9 8 7 6 6 6 5 5 5 5 5 5 5 5 5 5 5 5 5 5 5 5 5 5 5 4 4 4 4 4 4 5 5 5 5 5 5 5
35 38 37 37 38 40 42 43 42 40 37 35 35 32 24 17 16 15 14 12 10 8 7 7 8 8 8 7 7 7 7 7 8 8 7 7 8 8 9 10 12 14 14 14 14 14 14 13 12 9 8 7 7 6 6 5 5 5 5 5 5 5 5 5 5 5 5 5 5 5 5 5 5 5 5 5 4 5 5 5 5 5 5 5 5
35 37 37 36 37 40 43 43 43 42 39 36 36 35 29 22 17 16 14 12 11 10 9 7 7 8 8 8 7 7 7 7 8 8 8 8 8 8 8 10 11 13 15 15 15 15 15 15 15 14 12 10 8 7 7 6 6 5 5 5 5 5 5 5 5 5 5 5 5 5 5 5 5 5 5 5 5 5 5 5 5 5 5 5 5
34 36 35 35 36 39 42 44 43 42 41 38 37 36 34 27 22 19 17 14 11 11 10 9 8 8 8 8 8 8 8 8 8 8 9 9 8 8 8 9 10 11 14 15 16 16 15 15 16 16 16 14 12 9 8 7 7 6 5 5 5 5 5 5 5 5 5 5 5 5 5 5 5 5 5 5 5 5 5 5 6 6 6 6 5
32 34 34 33 35 38 41 43 43 43 43 41 38 37 36 32 26 22 21 18 14 11 10 9 9 8 8 9 9 9 8 8 8 8 9 9 9 9 8 9 9 10 11 13 16 17 17 17 16 16 17 17 16 14 11 9 8 7 7 6 6 5 5 5 5 5 5 5 5 5 5 5 5 5 5 5 5 5 5 5 6 6 6 6 6
31 32 32 31 32 36 39 41 42 42 43 43 40 39 38 36 31 27 24 22 18 14 11 10 9 9 8 8 9 10 9 8 8 8 8 9 10 10 9 9 9 10 10 11 13 16 17 18 18 17 17 17 17 18 17 14 11 9 8 7 7 6 5 6 6 6 6 5 5 5 5 5 5 5 5 5 5 5 6 5 5 6 6 6 6
29 30 30 28 29 33 36 37 39 41 43 44 43 40 39 39 35 30 27 26 23 19 15 12 10 9 9 8 9 10 10 10 9 8 8 9 9 10 11 10 9 9 10 10 11 13 16 18 19 19 18 18 18 18 19 19 17 14 11 9 8 8 7 6 6 6 6 6 6 6 5 5 6 5 5 5 5 5 5 5 5 6 6 6 7
28 29 28 27 27 30 32 34 36 40 42 44 43 41 40 39 37 32 29 27 26 23 18 15 12 10 9 9 8 9 10 10 10 9 9 9 9 9 10 11 11 10 10 10 10 11 13 16 19 21 21 20 19 19 19 20 20 19 17 13 10 9 8 7 7 6 6 6 6 6 6 6 6 6 6 6 5 5 5 5 5 5 5 6 6
28 28 27 26 26 28 30 31 33 37 41 43 43 42 40 39 36 32 28 27 27 25 21 18 15 13 11 10 9 8 9 10 10 10 9 9 9 9 9 11 12 12 11 10 10 10 11 13 16 19 21 22 21 20 20 20 20 21 21 20 17 13 10 9 8 7 7 6 6 6 7 7 7 7 6 6 6 6 5 5 5 5 5 5 6
28 28 27 25 25 27 29 29 31 35 40 42 42 42 41 39 36 32 28 26 26 26 24 20 18 15 13 11 10 9 9 9 10 11 10 9 9 9 9 9 10 12 12 12 11 11 11 11 12 15 18 21 23 23 22 21 21 21 21 22 22 20 17 13 11 9 8 7 7 6 6 7 7 7 7 7 7 6 6 6 6 6 5 6 5
29 29 27 25 25 27 28 28 29 33 38 41 42 42 42 40 37 33 28 25 25 26 24 22 19 17 15 13 11 10 9 9 9 10 11 11 10 9 9 9 9 10 12 13 13 12 11 11 11 12 13 16 20 23 24 23 22 22 22 22 22 23 23 21 18 14 11 10 8 7 7 7 7 7 7 7 7 7 7 7 7 6 6 6 6
29 29 28 26 26 26 27 27 27 31 36 41 42 42 43 41 38 33 28 25 25 26 26 23 20 18 16 15 14 12 10 9 9 9 10 11 11 10 9 9 9 9 10 12 13 14 13 12 11 11 11 13 15 19 23 25 25 24 23 23 22 23 23 24 24 22 18 14 12 10 9 8 7 7 7 7 8 8 8 8 7 7 7 7 6
29 29 29 27 26 27 27 27 27 29 35 40 42 43 43 42 38 33 29 25 25 27 27 25 22 19 17 16 15 14 12 11 10 9 10 11 11 11 10 9 9 9 9 10 11 13 14 14 13 12 11 12 12 14 17 22 25 26 26 25 24 24 23 23 24 25 24 22 18 15 12 10 9 8 7 7 7 8 8 8 8 8 8 8 7
29 29 29 28 27 27 27 27 27 29 34 40 43 43 43 42 39 34 28 25 24 26 28 28 25 21 18 17 15 14 14 12 11 10 10 10 11 12 12 11 10 9 9 10 10 11 13 15 15 14 13 12 12 13 14 16 21 25 27 27 26 26 25 25 24 24 25 26 25 23 19 15 12 10 9 8 8 7 7 8 8 8 8 8 8
28 29 29 28 28 27 27 27 27 28 33 40 43 44 44 43 40 34 29 25 24 25 28 29 27 23 20 18 17 15 14 13 12 11 10 10 11 12 12 12 11 10 10 10 10 10 11 13 14 15 15 14 13 13 13 13 16 19 24 28 29 28 27 27 27 26 25 25 26 27 26 23 20 16 13 10 9 8 8 7 7 7 8 8 9
28 28 28 28 28 28 27 26 26 28 32 39 43 44 45 44 41 36 30 25 24 25 27 29 29 26 22 20 19 17 15 14 12 11 11 10 10 11 12 12 12 11 10 10 10 10 10 11 13 14 15 15 15 14 14 13 14 15 18 23 28 30 30 29 28 28 28 28 27 27 28 28 27 25 21 17 14 11 10 9 8 7 7 8 8
27 28 28 28 28 28 27 26 26 27 32 39 43 45 46 46 43 38 31 26 24 25 27 29 30 28 24 22 20 19 18 16 13 12 11 10 10 11 12 12 13 12 11 11 10 10 10 10 11 12 14 15 16 16 15 15 14 14 14 17 22 27 31 33 31 29 29 30 30 29 29 29 30 30 29 27 23 19 15 12 10 9 8 8 8
26 27 27 28 28 28 27 26 25 27 32 39 43 46 47 47 44 39 32 27 25 25 27 30 31 29 25 23 22 20 19 18 16 13 11 10 10 10 11 12 13 13 12 11 11 11 10 10 10 11 12 13 14 16 16 16 15 15 14 14 16 20 26 33 36 35 32 30 30 31 31 31 31 31 31 31 30 28 24 20 15 12 10 9 8
25 26 27 28 28 27 27 25 25 27 32 39 44 46 47 47 43 37 30 26 25 25 28 30 32 30 27 24 22 21 20 19 17 15 13 11 10 10 10 11 12 13 12 12 11 11 11 10 10 10 11 12 13 14 15 16 16 16 16 15 15 15 18 24 33 38 39 35 32 31 32 33 33 33 33 32 32 32 31 28 24 19 16 12 10
24 25 26 27 27 27 26 25 25 27 32 39 44 47 47 46 41 34 27 24 24 25 28 31 32 30 27 25 23 22 21 20 18 16 14 12 11 10 10 11 11 12 12 12 12 11 11 11 11 10 10 11 12 13 14 15 15 16 16 16 16 16 15 16 22 31 39 42 40 36 33 32 33 33 34 34 33 33 32 32 31 29 25 21 17
Wind_Speed
53 50 48 46 44 42 41 40 39 37 35 34 32 29 28 28 29 31 33 34 36 38 41 43 46 50 54 57 59 61 64 65 65 67 69 73 77 79 82 85 88 91 94 98 101 104 107 110 112 114 116 117 119 120 121 124 126 128 130 131 132 134 136 137 138 138 140 143 144 145 147 148 150 150 151 152 153 153 152 152 151 151 150 150 150
56 53 49 47 45 43 41 40 39 38 37 35 34 32 29 27 27 28 30 31 33 35 37 40 42 45 49 52 56 59 61 61 62 64 65 67 71 74 77 79 81 84 87 90 94 98 102 105 108 110 112 114 116 117 119 121 123 125 127 129 130 131 132 133 134 135 137 140 142 143 145 147 149 150 151 153 154 154 153 153 152 152 151 150 150
60 56 53 50 47 44 41 39 38 38 38 36 35 33 31 29 27 26 27 28 30 32 34 36 38 41 44 48 52 56 57 58 59 61 62 63 65 68 71 74 76 79 81 84 87 91 95 99 102 106 108 110 112 115 117 119 120 122 123 125 127 129 130 131 131 132 133 136 139 141 143 145 147 149 150 152 153 154 154 153 153 153 153 152 151
64 59 56 53 50 46 43 40 38 37 36 36 35 33 32 30 28 27 26 26 27 28 31 33 35 37 40 44 48 51 53 54 57 59 60 61 62 63 66 68 72 74 77 79 81 84 88 92 96 100 103 106 109 112 115 117 118 119 120 122 124 126 128 129 130 130 131 133 135 138 140 143 145 147 149 150 151 153 154 154 153 153 153 153 153
67 63 58 55 52 49 46 43 39 37 35 35 34 33 32 30 29 27 26 25 25 26 28 30 32 34 36 40 44 47 49 51 54 56 58 59 60 61 62 64 67 70 73 75 77 79 82 86 90 93 97 101 105 109 112 114 115 116 117 119 121 123 125 127 128 129 129 130 132 135 138 141 143 144 146 148 149 151 153 154 153 153 153 153 153
71 66 61 58 55 52 49 46 42 39 36 34 33 33 31 30 29 27 26 25 24 24 25 27 29 31 34 37 40 43 45 47 51 54 55 57 58 59 60 61 63 66 68 71 74 76 78 80 83 87 90 94 99 103 107 110 111 113 115 117 119 120 122 124 125 126 127 128 130 133 136 138 140 142 144 146 147 148 150 152 153 152 152 153 153
74 69 64 60 57 54 52 49 45 41 38 35 33 32 31 30 28 27 25 24 24 24 24 25 26 28 31 34 37 39 41 43 47 50 53 54 55 57 58 59 61 63 65 67 70 73 75 77 79 81 84 88 92 97 100 104 107 109 112 114 116 117 118 120 121 123 124 125 127 130 133 135 136 139 141 143 144 145 148 150 151 152 152 152 153
78 72 67 63 59 57 54 52 49 45 41 38 35 33 32 31 29 27 25 24 23 23 23 23 24 26 29 31 34 36 38 40 43 47 50 51 53 55 56 57 59 60 62 64 67 69 72 74 76 78 80 83 86 90 94 98 101 105 108 110 112 113 115 116 118 119 120 121 124 126 129 131 133 135 137 139 140 141 144 147 149 151 152 152 152
82 76 71 65 61 58 56 54 52 49 45 41 37 34 32 31 30 28 26 24 22 22 22 22 22 24 26 29 31 33 35 37 40 43 47 49 51 53 54 56 57 58 59 61 63 66 68 71 73 75 77 78 81 84 88 92 96 99 103 106 108 109 111 113 114 116 117 118 119 122 124 127 129 130 132 133 134 137 141 144 146 148 149 150 150
86 80 74 68 63 59 57 55 54 52 49 45 41 38 35 32 30 29 27 24 22 21 21 21 21 22 24 26 29 31 32 34 36 40 44 47 48 50 52 54 55 57 58 59 60 62 64 67 69 71 73 75 78 80 83 86 90 94 97 100 103 105 107 109 111 113 115 115 116 118 120 122 124 126 127 128 129 132 137 140 143 145 146 147 147
89 83 77 72 66 61 58 56 54 53 51 49 45 41 37 35 32 30 28 26 23 21 20 20 20 20 22 24 26 28 30 32 33 36 40 44 46 48 50 52 53 55 56 57 58 59 61 63 65 68 70 72 75 77 79 82 85 89 92 95 97 100 102 105 107 109 111 112 113 114 115 116 119 121 123 123 124 127 131 135 138 140 143 144 144
91 86 81 75 70 65 60 57 55 53 52 50 48 44 40 37 34 32 30 28 25 22 20 19 19 19 20 21 23 26 28 30 31 32 36 40 43 46 48 50 51 53 54 55 56 58 59 61 62 65 67 69 72 74 76 79 82 85 88 90 93 95 98 100 102 104 106 108 109 110 111 112 115 117 118 119 120 122 125 129 132 134 137 138 139
93 88 83 78 73 68 63 59 56 54 53 51 50 47 44 39 36 33 31 29 28 25 22 19 19 18 19 19 21 23 25 27 29 30 32 35 39 43 46 48 50 51 52 53 54 56 58 60 61 63 65 67 69 71 73 75 78 81 84 87 89 91 94 96 98 100 102 104 105 106 107 109 111 113 115 116 117 118 120 123 127 129 130 131 133
96 91 86 81 76 71 66 61 57 55 53 52 50 48 46 43 39 36 33 31 29 27 25 21 19 18 18 18 19 20 22 25 27 29 30 31 34 38 42 45 48 49 50 51 52 54 56 58 60 62 64 66 67 69 71 72 74 76 79 82 85 87 90 93 95 97 99 100 102 103 105 106 108 110 111 113 114 115 116 119 123 124 124 125 126
97 93 88 83 78 74 69 64 59 55 53 52 50 49 47 45 42 39 36 33 31 29 27 25 21 19 18 18 18 19 20 22 24 26 28 30 31 34 37 41 45 47 49 50 51 52 54 56 58 60 62 64 66 68 69 71 72 74 76 78 80 83 86 89 91 93 95 96 98 100 101 103 104 106 108 109 110 111 112 115 118 119 119 119 120
97 94 90 85 80 76 72 67 62 57 53 51 50 49 47 45 43 40 38 36 33 31 28 27 24 22 19 19 18 18 18 19 21 23 26 28 30 31 33 36 40 43 46 48 49 51 52 53 55 57 59 61 63 65 67 69 71 73 75 77 78 80 82 85 87 89 91 92 94 96 98 99 100 102 104 105 105 106 108 110 113 115 116 116 116
97 95 91 87 82 77 74 70 66 61 56 53 51 49 47 46 44 41 38 36 35 33 30 28 26 24 22 20 19 19 18 18 19 21 23 25 28 30 32 33 35 38 41 44 47 48 50 51 53 54 56 57 59 61 64 66 69 71 73 75 77 79 81 83 84 85 87 89 91 92 94 96 97 99 101 102 102 104 105 106 108 111 112 113 113
97 95 92 89 84 79 75 71 68 64 59 55 52 50 48 46 44 42 40 37 35 33 32 30 27 25 24 21 20 19 19 18 18 19 21 23 25 28 30 32 33 34 36 39 42 45 47 49 51 52 53 55 56 57 60 62 65 68 70 73 75 77 80 81 82 83 84 85 87 88 90 92 94 95 97 98 100 101 102 103 106 108 108 109 110
96 94 92 89 86 81 76 72 69 66 62 57 54 52 50 48 45 43 41 38 36 34 32 30 29 27 25 23 21 20 19 19 19 19 19 20 22 24 27 30 32 33 34 36 37 40 42 45 47 49 51 52 53 55 57 59 61 63 65 68 70 74 76 78 78 80 82 83 84 85 87 88 90 91 92 94 96 97 99 101 103 105 105 106 107
95 93 91 89 86 83 78 74 70 67 64 60 56 53 51 49 47 45 42 40 37 35 33 31 29 27 26 25 23 21 20 19 19 19 19 19 20 22 24 26 29 31 33 34 35 37 39 41 43 45 47 49 51 53 55 57 59 60 62 64 66 69 71 71 73 75 77 79 81 82 83 84 85 86 88 90 92 95 97 99 101 101 102 104 105
94 92 90 89 87 84 80 76 71 68 66 62 58 54 52 50 49 47 44 41 39 37 34 32 30 28 26 25 24 23 21 20 20 19 19 19 19 20 22 23 26 28 31 33 35 36 37 38 40 41 43 45 47 49 52 54 56 58 60 61 64 65 66 66 68 70 72 74 76 78 79 81 83 84 87 89 91 92 94 96 97 98 99 101 102
94 91 89 88 87 84 81 78 73 69 66 64 60 56 53 51 49 48 46 44 42 39 36 34 32 30 28 26 24 24 22 20 20 20 20 19 19 19 20 21 23 25 28 30 32 34 36 37 39 40 41 42 44 46 48 50 53 55 57 58 60 62 63 64 65 67 68 70 72 73 75 77 80 83 85 87 88 89 91 92 94 95 96 98 99
93 90 88 87 86 84 82 79 76 71 67 64 62 58 54 52 50 48 47 46 44 42 39 36 34 31 30 27 25 24 23 22 20 19 20 20 20 20 20 20 21 23 25 27 29 31 33 36 37 39 40 41 42 44 45 47 49 51 53 54 56 58 60 61 63 64 66 67 68 69 72 75 77 79 81 83 84 85 87 89 91 92 94 95 96
92 90 88 86 85 84 82 80 78 74 69 65 62 59 56 52 50 48 47 45 45 43 42 39 37 34 32 30 27 26 24 23 22 21 20 20 20 21 21 21 20 21 22 25 27 29 31 33 35 37 39 40 42 43 44 45 47 48 49 50 52 54 56 57 59 60 62 63 65 68 70 73 75 75 76 78 78 80 82 84 87 89 90 92 93
92 89 87 85 83 82 82 80 79 76 72 67 63 60 57 53 50 49 47 46 44 44 43 41 39 37 34 32 29 27 26 25 24 22 21 20 21 21 21 21 21 21 22 23 24 26 28 30 32 34 36 38 40 41 43 44 45 46 47 48 49 51 52 53 54 55 57 59 62 65 68 70 71 72 72 72 73 75 77 79 81 83 85 86 89
91 88 86 85 83 81 80 79 78 77 74 70 65 61 58 55 51 49 47 46 44 43 43 42 40 39 37 34 31 29 27 26 25 23 22 22 21 21 21 21 21 21 22 22 23 24 25 27 30 31 33 35 37 39 40 42 43 44 45 46 47 48 50 51 52 53 54 56 59 61 64 65 66 66 66 67 69 72 73 75 76 77 79 81 83
90 87 86 84 82 81 79 78 77 76 74 72 68 63 60 57 54 50 47 45 44 42 42 42 41 39 38 36 34 31 28 27 25 24 23 22 22 22 21 20 20 20 21 22 23 24 24 26 27 29 31 32 34 35 37 39 40 42 43 44 45 46 47 49 50 51 53 55 57 60 61 62 62 62 63 64 66 68 69 70 72 73 75 77 79
89 86 85 83 81 80 78 78 77 75 74 72 70 66 62 58 56 53 49 46 44 42 41 40 40 39 38 37 35 33 31 28 26 25 24 23 22 22 22 21 20 20 20 20 21 23 24 25 26 27 28 29 31 32 34 35 37 38 39 41 42 43 45 46 47 49 51 53 56 58 59 60 60 61 61 61 63 65 66 67 68 69 70 73 75
88 86 84 82 80 78 77 76 76 75 73 71 70 69 65 61 57 54 51 49 46 44 41 39 39 38 37 36 34 33 32 29 27 26 24 23 22 22 22 22 21 20 20 20 21 21 22 24 25 25 26 27 28 29 31 32 34 35 36 37 39 41 42 43 45 46 48 50 53 55 56 57 58 59 59 59 61 64 64 64 64 65 67 69 72
88 85 83 81 80 78 76 75 74 74 73 70 69 68 67 64 60 56 53 50 47 46 43 41 39 38 37 36 35 33 32 30 28 27 25 24 23 22 21 21 21 21 21 21 21 21 22 22 23 24 25 25 26 27 28 29 31 32 33 35 36 38 39 41 43 44 46 48 49 51 52 54 55 56 56 57 59 61 60 60 61 62 64 66 69
87 85 83 81 79 78 76 75 73 73 72 71 68 66 65 64 63 60 56 52 48 46 45 43 41 38 37 36 35 34 32 31 29 27 26 25 24 23 22 21 21 21 21 21 22 22 22 22 23 23 23 24 24 25 26 27 28 30 31 32 34 35 37 38 40 42 43 45 46 47 49 51 52 53 53 54 56 57 56 56 58 61 62 63 66
87 84 82 81 79 77 76 74 73 72 71 70 69 66 64 63 61 60 59 56 52 48 46 45 43 41 39 37 36 34 33 32 30 29 27 26 24 24 23 22 22 21 21 21 22 22 22 22 22 23 23 23 24 24 25 26 27 28 29 30 32 33 35 36 37 39 40 42 43 44 46 48 49 50 50 51 52 52 52 54 57 59 60 61 63
85 83 82 80 79 77 76 74 73 72 71 70 68 67 65 63 61 59 57 56 54 51 48 45 44 43 41 39 37 35 34 33 32 30 28 27 26 24 23 23 23 22 22 22 22 22 22 22 22 23 23 24 24 24 24 25 26 26 27 28 29 31 33 34 36 37 38 39 40 41 43 44 45 46 47 48 48 49 50 53 55 57 57 59 60
84 82 81 79 78 77 75 74 72 71 70 69 68 67 65 63 62 60 57 55 53 52 50 47 45 43 42 40 38 36 35 34 33 31 30 29 27 26 24 24 23 23 23 22 22 22 22 22 22 22 23 23 24 24 24 24 25 25 26 27 28 29 30 32 33 35 36 36 37 38 39 41 42 43 44 45 45 46 48 50 52 53 54 55 57
82 80 79 78 77 76 75 73 71 70 69 68 68 66 64 63 62 61 59 57 54 51 49 47 45 43 42 41 39 37 36 35 33 32 31 30 28 27 26 24 24 24 24 23 23 23 22 22 22 22 22 23 24 24 25 25 25 25 25 26 27 28 28 29 31 32 34 35 35 36 37 38 39 40 41 42 42 43 44 46 48 49 51 52 54
81 79 78 77 76 75 74 73 71 69 68 67 67 66 64 63 61 60 60 58 56 54 51 48 45 43 42 41 40 38 37 36 34 33 31 30 29 28 27 26 25 25 24 24 24 23 23 23 23 22 22 23 23 23 24 25 25 25 25 25 26 26 27 28 29 30 31 32 34 35 35 36 37 38 39 40 40 40 41 43 44 46 48 50 51
80 79 77 76 75 74 74 73 71 69 68 67 66 65 64 62 61 60 59 58 57 56 53 50 47 45 42 41 40 39 38 36 35 34 33 31 30 29 28 27 26 25 25 25 24 24 23 23 23 23 23 23 23 23 23 24 25 25 25 25 25 26 26 27 28 29 30 31 32 33 34 35 36 37 38 38 39 39 39 40 41 42 44 46 48
80 78 77 76 75 74 73 72 71 69 67 66 66 65 64 62 60 59 58 58 57 57 55 53 50 47 44 42 40 39 37 37 36 35 34 32 31 30 29 28 26 26 25 25 25 24 24 24 23 23 24 24 23 23 23 24 24 25 25 26 26 26 26 26 27 28 29 29 30 31 32 33 34 35 36 37 37 38 38 39 39 40 41 43 45
78 78 77 76 75 74 73 72 71 69 67 66 65 65 63 62 60 58 57 56 56 56 55 55 53 50 47 43 41 39 38 36 36 35 34 33 32 31 30 29 27 27 26 26 25 25 25 24 24 24 24 24 24 24 24 24 24 24 25 25 26 26 26 26 26 27 27 28 29 29 30 31 32 32 33 34 36 37 37 38 38 39 39 40 42
77 77 76 75 74 73 73 72 71 69 67 66 65 64 63 61 59 57 56 55 55 54 54 54 54 52 50 46 43 40 38 37 36 35 34 33 33 32 31 30 29 28 27 26 26 25 25 25 25 25 24 24 24 25 24 24 24 24 24 25 25 25 26 26 26 26 27 27 28 28 29 30 30 31 32 32 33 34 35 36 37 38 38 39 40
77 76 76 75 74 73 73 72 71 69 68 66 65 64 63 61 59 57 55 54 53 53 53 52 52 52 52 49 46 43 40 37 36 35 34 34 33 33 32 31 30 29 28 27 27 27 26 26 25 25 25 25 25 25 25 25 25 25 24 25 25 25 25 26 26 26 27 27 27 28 28 29 29 30 31 31 32 32 33 34 35 36 37 38 38
76 76 75 75 74 73 72 72 71 70 68 67 65 64 63 62 59 57 55 54 53 52 52 51 51 51 51 50 49 46 42 39 37 35 34 34 33 33 32 32 31 30 29 28 28 28 28 27 26 26 26 25 25 25 25 25 25 25 25 25 25 25 25 26 26 26 26 27 27 28 28 29 29 29 30 30 31 31 32 33 33 34 35 36 37
76 75 75 74 73 73 72 72 71 70 68 67 66 65 64 62 60 57 55 54 53 53 52 51 50 50 50 49 49 47 45 42 39 37 35 34 33 33 32 32 32 31 30 29 29 28 28 28 28 27 27 27 26 26 25 25 26 26 25 25 25 25 26 26 26 26 26 27 27 27 28 28 29 29 29 30 30 30 31 32 32 33 34 35 35
75 75 74 74 73 72 72 71 71 70 68 67 66 65 64 62 60 58 55 53 53 52 52 51 51 50 49 49 48 47 46 44 41 38 36 35 34 33 32 32 32 32 31 30 30 29 29 29 29 28 28 28 27 27 27 26 26 26 26 26 26 26 26 26 27 27 27 27 27 27 27 28 28 29 29 29 30 30 31 31 31 32 33 33 34
75 74 74 73 72 72 71 71 70 69 68 67 66 66 65 63 61 58 56 54 52 52 51 51 51 50 50 49 49 48 46 45 43 41 38 36 34 34 33 32 32 32 31 31 30 30 29 30 29 29 29 28 28 28 28 28 27 27 27 27 27 26 26 26 27 27 27 27 28 28 28 28 28 28 29 29 29 30 30 30 31 31 31 32 32
74 73 73 72 71 71 71 70 69 69 68 67 66 66 65 63 61 59 56 54 53 52 51 50 50 50 50 50 50 49 47 46 44 42 40 37 35 34 33 33 33 32 32 32 31 30 30 30 30 30 30 29 29 29 29 29 29 28 28 27 28 27 27 27 27 27 27 28 28 28 28 28 28 28 28 28 28 29 29 30 30 30 30 31 31
73 72 72 71 71 71 70 70 69 68 67 66 66 66 65 64 62 60 57 55 54 53 52 51 50 49 49 49 49 49 49 48 46 44 41 39 37 35 34 33 33 33 33 32 32 32 31 30 31 31 31 30 29 29 29 30 30 30 29 29 29 28 28 28 28 27 27 27 28 28 29 29 28 28 28 28 28 29 29 29 30 30 30 31 31
72 71 71 70 70 70 70 69 68 68 67 66 66 65 65 64 62 60 58 57 55 54 53 52 50 50 49 49 49 49 49 48 47 46 43 41 39 37 35 34 33 33 33 33 33 33 32 31 31 31 31 32 31 30 30 30 30 30 30 30 30 30 29 29 29 29 28 28 28 28 28 29 29 29 29 29 29 29 29 29 29 29 30 31 31
71 70 70 70 70 70 69 69 68 67 66 66 66 65 65 64 62 60 59 57 56 55 54 53 52 50 50 50 49 49 49 48 48 47 45 43 41 38 37 35 34 33 33 33 33 33 33 33 32 32 32 32 32 32 31 31 31 30 31 31 31 31 31 30 30 30 30 29 29 28 28 29 29 30 30 30 30 30 30 30 30 29 30 30 30
70 69 69 69 69 69 69 68 68 67 66 66 66 65 65 64 62 61 59 58 56 56 55 54 52 51 51 50 50 50 49 49 48 47 46 44 42 40 38 37 35 34 33 33 33 33 33 34 34 33 33 33 33 33 33 33 32 31 31 31 32 32 32 32 31 31 31 31 30 30 29 29 29 30 30 31 31 31 31 31 31 31 30 30 30
69 69 68 68 68 68 68 68 67 66 66 66 66 65 65 64 62 61 60 58 57 56 55 54 53 52 51 51 51 51 50 50 49 48 47 45 43 41 40 38 37 36 35 34 34 33 33 34 34 34 34 34 33 33 34 34 34 33 32 32 32 32 33 33 33 33 32 32 32 32 31 31 30 30 30 30 31 31 31 31 31 31 31 31 30
Wind_Direction
357 356 354 351 348 345 340 335 330 325 320 316 311 305 297 289 284 279 276 272 268 266 262 258 255 253 252 251 250 248 247 246 244 243 242 242 242 241 241 240 240 239 239 238 238 238 238 237 237 238 238 238 238 238 238 238 238 239 239 239 239 238 238 238 237 236 237 237 237 237 238 238 238 239 239 240 240 239 239 240 240 240 240 239 240
357 358 357 355 352 349 345 340 334 329 324 320 316 311 305 298 290 284 280 276 272 268 264 260 256 254 252 251 250 249 248 247 246 245 244 243 242 242 242 241 241 240 239 239 238 238 238 237 237 237 237 237 237 238 238 238 238 238 238 239 239 238 238 238 238 237 237 237 237 237 237 238 238 238 238 239 240 240 239 239 239 240 240 240 240
357 357 358 357 355 352 349 345 340 333 327 323 319 315 311 306 299 291 284 280 276 271 266 262 258 255 253 252 250 250 249 248 247 246 245 244 243 242 242 241 241 241 240 239 239 238 238 237 237 237 237 237 237 237 237 237 237 237 237 238 238 238 238 238 238 237 237 237 237 237 237 237 238 238 238 238 239 240 240 239 239 239 239 240 240
358 357 358 358 357 355 352 350 345 339 332 326 321 318 314 311 305 299 292 285 280 276 271 266 261 257 253 252 251 250 250 249 247 246 245 244 244 243 242 241 241 241 241 240 239 239 238 238 237 237 237 237 237 237 237 237 238 237 237 237 238 238 238 238 237 237 236 237 237 237 237 237 237 238 238 238 239 240 240 240 240 239 239 239 240
359 358 357 357 358 357 354 352 350 345 339 332 326 321 317 314 310 305 299 293 286 280 275 270 266 261 256 252 251 251 249 248 247 246 245 244 243 243 242 241 240 240 240 240 240 239 238 238 238 237 237 236 236 236 237 237 237 238 237 237 237 237 238 238 238 237 236 236 236 237 237 237 237 237 238 238 238 239 240 241 241 240 239 239 240
1 359 357 357 357 357 356 354 352 350 346 340 333 326 320 316 312 309 304 299 292 285 279 275 270 265 260 255 252 251 249 248 247 246 245 244 243 242 241 241 240 239 239 239 239 239 239 238 238 237 237 237 236 236 237 237 237 238 238 238 237 237 237 238 238 238 237 236 236 236 237 237 237 237 237 238 238 239 239 240 241 241 240 240 240
2 0 359 357 357 356 356 355 353 351 349 346 341 335 327 320 315 311 307 303 297 290 284 278 274 269 264 260 255 252 249 248 248 247 246 244 243 242 241 240 240 239 238 238 238 238 239 239 238 237 237 237 237 237 237 237 237 238 238 238 238 238 238 238 238 238 238 237 237 237 237 237 237 237 237 237 238 238 239 240 241 241 241 241 240
3 2 360 358 357 356 356 355 354 352 351 350 347 342 335 327 321 316 311 307 302 295 289 283 277 273 268 264 260 255 252 248 247 247 247 245 243 242 241 240 239 239 238 237 237 237 238 238 238 238 237 236 236 237 237 237 237 237 238 238 239 239 239 239 239 239 239 238 238 238 238 238 238 238 238 238 238 238 239 240 240 241 241 241 241
3 2 1 359 358 357 356 356 354 353 352 351 350 348 342 335 328 322 317 312 306 300 294 287 281 277 272 268 264 259 255 250 247 247 247 247 245 243 241 240 239 238 238 237 237 236 237 237 238 238 238 237 236 236 236 237 237 237 237 238 238 239 239 239 240 240 240 239 239 239 239 240 240 239 239 239 238 238 239 240 240 241 241 241 242
2 2 1 360 359 358 357 356 355 354 352 351 351 350 348 343 336 328 322 316 311 305 299 293 286 281 276 272 268 264 259 253 249 247 246 246 246 245 243 242 240 238 237 237 236 236 236 237 237 238 238 237 237 236 236 236 237 238 238 238 238 238 239 239 239 240 240 240 240 239 239 240 240 241 240 240 239 239 239 240 240 241 241 241 241
2 2 1 0 359 359 358 357 356 354 353 351 351 350 350 347 342 336 328 321 316 310 305 298 292 285 280 276 272 269 265 258 252 248 247 246 246 245 245 244 242 240 238 237 236 236 236 236 236 237 237 237 237 236 235 235 236 236 237 238 239 239 239 239 240 240 240 240 240 240 240 240 240 241 241 240 240 240 240 241 241 241 241 242 242
2 1 1 0 360 359 359 358 357 355 354 352 351 350 350 349 346 342 335 328 321 316 311 305 298 291 284 278 275 272 269 265 259 252 248 247 247 246 245 245 244 243 240 238 236 235 235 234 234 235 236 237 237 237 236 235 235 235 236 237 237 238 239 240 240 241 241 241 241 241 241 241 241 241 241 241 240 240 240 241 241 241 242 242 242
1 1 1 0 360 359 359 359 358 356 354 353 351 350 349 349 348 346 341 335 327 321 316 311 305 297 289 282 277 273 271 269 265 259 252 248 246 247 247 246 245 245 243 241 239 237 235 234 233 233 234 234 236 237 237 236 236 236 236 236 236 237 238 239 240 240 241 241 241 241 241 241 241 241 241 241 241 240 240 241 241 241 241 242 242
359 0 1 0 360 359 358 359 359 357 355 354 352 351 349 348 348 347 345 341 334 327 321 316 311 305 297 289 280 275 271 270 268 265 260 253 247 245 246 247 246 246 245 244 242 240 238 236 234 234 233 233 234 235 236 236 237 237 237 237 237 237 237 238 238 239 240 240 241 241 241 241 241 241 241 241 241 240 240 241 242 242 242 242 242
358 359 360 0 360 359 358 358 358 358 357 355 353 351 350 349 347 347 345 343 339 333 327 321 316 310 305 298 289 280 274 270 268 266 265 261 255 248 245 245 245 246 245 245 243 242 241 240 238 236 235 234 234 234 234 235 235 236 236 237 237 237 237 238 238 239 239 240 240 241 241 241 242 242 242 242 241 241 241 241 242 243 242 242 242
357 358 359 359 360 359 358 357 357 358 358 357 354 352 351 350 348 347 345 343 341 337 332 325 319 314 310 305 298 289 281 274 269 267 265 263 261 256 251 246 244 245 245 245 244 243 242 242 241 240 238 237 236 235 235 234 235 235 236 236 236 237 237 237 238 238 239 239 240 241 241 242 242 242 243 243 243 243 242 242 242 243 242 242 242
356 356 357 358 359 359 359 357 356 357 357 357 356 353 351 350 349 348 346 344 341 339 336 330 324 318 312 308 304 298 290 281 275 270 267 265 262 260 258 253 248 245 245 245 245 244 243 243 242 242 241 240 239 238 237 236 236 236 236 236 237 237 237 237 238 238 238 238 239 239 240 241 241 242 243 243 244 244 244 243 243 243 243 242 242
355 355 356 357 358 358 359 358 356 356 357 357 356 354 352 350 349 348 347 345 342 340 337 334 328 322 315 309 305 302 297 290 282 275 270 267 265 262 260 258 255 251 247 245 245 244 244 244 243 243 242 242 241 240 240 239 238 238 237 237 237 238 238 238 238 239 239 239 239 239 239 240 240 241 242 243 243 244 244 244 244 244 244 244 243
355 355 355 356 357 357 358 358 357 356 356 357 356 355 352 350 349 349 348 346 344 341 338 336 332 327 321 314 308 303 300 295 289 282 275 270 267 265 263 260 257 255 252 249 247 246 245 244 244 243 243 243 242 242 241 241 240 240 239 240 240 239 239 240 240 240 240 241 240 240 240 240 241 241 241 242 243 243 244 244 244 244 244 244 244
354 354 354 355 356 356 357 358 358 357 356 356 356 355 353 350 349 348 348 347 345 343 340 337 334 331 326 320 313 307 302 298 294 289 282 275 270 267 265 263 260 257 254 252 249 247 247 246 245 245 244 243 243 243 242 242 242 241 241 240 240 240 240 240 241 241 241 241 241 241 241 242 242 242 241 241 241 242 242 243 243 244 244 244 244
353 354 354 354 355 355 356 357 358 357 356 355 356 355 353 351 349 347 347 347 346 344 342 338 335 332 329 325 318 312 307 302 298 294 289 283 276 270 267 265 262 259 256 253 251 249 247 246 246 246 245 244 244 243 243 243 243 243 242 242 242 242 241 241 241 241 241 241 241 241 241 242 242 241 241 241 241 241 241 242 243 243 243 244 244
352 353 353 353 354 354 355 355 357 358 357 355 355 355 354 352 350 347 346 346 346 345 343 340 337 333 330 328 323 318 311 306 302 298 294 290 284 277 271 267 264 262 259 256 253 250 248 247 246 245 244 244 244 244 244 244 244 244 243 243 243 244 244 243 242 241 241 241 241 241 241 241 241 241 241 241 241 241 241 242 242 243 243 243 244
352 352 353 353 353 353 354 354 355 357 357 356 355 355 354 353 350 348 346 345 345 344 343 341 338 334 331 329 327 322 317 311 306 302 299 295 291 286 279 273 268 264 261 258 255 252 249 248 246 245 244 244 244 244 245 245 245 245 245 244 244 245 245 244 244 243 243 242 242 242 241 241 241 240 240 240 240 240 241 241 241 242 242 242 243
351 351 351 352 352 353 354 354 354 355 356 356 355 355 355 353 351 348 346 345 344 344 343 341 339 337 333 330 327 325 322 316 311 306 303 299 295 291 287 281 276 270 265 261 258 255 252 249 248 246 245 244 244 244 245 245 246 246 246 246 245 246 246 245 245 245 244 244 243 242 242 242 242 242 241 241 241 241 241 240 240 240 241 241 241
350 350 350 351 352 352 353 354 353 353 354 355 355 354 354 354 352 349 347 345 344 343 343 341 339 337 334 331 328 326 324 321 315 310 306 303 298 294 290 287 283 279 273 267 262 258 255 252 250 248 246 245 244 244 244 245 245 246 247 247 247 247 247 247 247 247 246 246 245 244 244 244 244 243 243 243 243 242 242 242 241 241 241 240 240
350 349 349 350 351 351 352 353 353 352 352 353 354 354 354 354 353 351 348 346 344 343 342 342 340 338 335 332 328 326 324 322 318 313 308 305 301 296 291 288 285 282 280 276 271 265 260 256 253 250 248 247 245 245 244 244 245 245 246 246 247 247 248 248 248 247 247 247 247 247 247 247 246 245 245 244 244 243 243 243 243 243 242 242 241
349 348 348 349 350 350 351 352 353 352 352 351 352 353 354 353 353 352 349 347 345 343 342 342 341 339 336 333 330 326 323 322 319 315 310 306 302 298 293 288 285 283 282 279 277 273 268 263 259 255 251 249 248 246 246 245 244 245 245 245 245 246 246 247 247 247 246 246 247 247 248 248 248 248 247 245 245 244 243 242 242 242 242 242 242
349 348 347 348 349 350 350 351 352 352 352 351 350 351 353 353 353 352 350 347 345 344 342 342 341 339 337 334 331 327 323 320 318 316 312 307 303 300 297 293 289 285 283 281 278 276 272 269 265 261 257 254 251 250 248 247 246 245 245 245 245 245 245 245 245 245 245 245 245 246 247 248 248 248 248 247 247 246 245 243 243 242 242 242 242
348 347 347 347 348 349 349 350 351 351 351 351 350 350 351 352 352 352 351 348 346 344 343 342 341 340 338 335 332 328 323 320 317 315 313 309 304 300 298 297 295 292 288 285 282 279 275 272 268 265 261 258 256 254 253 251 249 247 246 246 246 246 246 246 246 245 245 244 245 245 246 246 247 247 247 247 247 247 246 245 244 243 243 242 242
347 346 346 346 347 348 348 349 350 350 350 351 350 349 349 350 351 351 351 350 347 344 342 341 340 340 339 337 334 330 326 321 317 314 313 311 307 303 299 297 296 295 293 290 287 284 280 276 273 269 266 263 260 258 256 255 253 251 249 247 247 247 247 247 247 246 246 245 245 245 245 246 246 246 245 245 245 246 246 246 245 244 243 243 243
346 345 345 345 347 347 348 348 349 350 350 350 349 349 349 349 349 349 350 350 348 345 342 341 339 339 339 339 337 334 329 325 319 315 312 311 310 307 303 299 296 294 293 291 289 286 284 281 278 275 272 269 266 263 260 257 255 254 252 250 249 248 248 248 248 248 247 247 247 247 247 246 246 245 245 244 244 245 245 244 244 243 243 242 243
345 344 344 345 346 347 347 347 348 349 349 349 349 348 348 348 349 349 349 349 348 346 344 341 339 338 338 339 339 336 333 329 324 318 314 311 310 309 307 303 298 295 293 291 289 287 286 284 282 280 278 275 272 269 265 262 258 256 254 252 251 250 249 249 249 249 249 248 248 248 248 248 247 246 245 244 244 244 243 242 242 242 242 242 242
343 343 343 344 345 345 346 346 346 347 348 348 348 348 347 346 347 348 349 348 348 347 345 342 340 338 337 338 339 338 336 332 328 323 318 314 311 310 309 306 302 298 294 292 290 288 286 285 284 283 282 280 278 274 271 267 264 260 257 254 252 250 250 250 250 250 250 250 249 249 249 249 249 248 247 245 243 242 241 241 241 242 241 241 241
342 342 342 343 344 344 345 345 345 346 347 347 348 347 347 346 346 346 347 348 348 347 345 343 340 338 337 336 337 338 337 334 331 327 322 317 312 310 309 307 304 300 296 293 290 288 286 284 283 283 282 282 281 279 276 273 269 266 262 259 256 253 251 250 250 250 250 250 250 250 250 250 250 249 248 247 244 242 241 241 241 242 242 242 242
341 341 341 342 343 343 344 344 344 345 346 346 347 347 346 345 345 345 345 345 346 347 347 345 341 339 337 336 335 336 337 336 333 330 326 321 315 311 308 307 305 302 298 294 291 289 287 284 283 282 281 281 281 280 279 277 274 271 267 264 261 258 255 252 251 250 250 250 250 251 251 251 250 250 250 249 247 244 242 241 241 241 241 241 241
340 340 340 341 342 342 342 342 343 343 344 345 346 346 346 345 345 344 344 344 344 345 346 346 344 341 338 336 335 335 335 335 334 332 329 324 319 314 310 307 304 302 300 296 293 290 287 286 284 282 280 279 279 279 279 278 277 275 272 269 266 263 260 258 256 253 251 250 250 249 250 250 250 250 250 249 248 246 244 242 241 240 240 240 240
339 339 339 340 341 341 341 341 341 342 343 344 345 345 346 345 345 344 343 342 342 343 344 345 345 343 340 337 335 334 334 334 333 333 330 327 322 318 313 308 304 302 300 298 294 291 288 286 285 283 280 279 278 277 277 277 277 277 275 273 270 267 263 261 259 257 255 253 251 250 249 249 249 249 249 249 248 247 246 244 242 240 240 240 240
338 338 338 339 340 341 341 340 340 341 342 343 344 345 345 345 345 344 343 342 341 341 341 342 343 343 342 339 336 334 333 332 332 332 331 328 324 320 316 311 306 302 299 298 296 293 290 287 285 284 282 280 278 277 276 276 276 275 275 274 273 271 267 263 260 258 256 255 254 252 251 250 249 248 248 248 247 247 246 245 244 242 240 239 239
337 337 337 338 339 339 340 340 340 340 340 342 343 343 344 344 344 344 343 342 341 340 340 340 341 342 342 340 337 334 332 331 330 330 329 328 325 322 318 314 310 304 300 298 296 294 292 289 286 284 282 281 279 277 275 274 274 274 274 273 273 272 271 268 264 260 257 255 254 254 253 253 251 250 249 248 247 246 246 246 245 244 242 241 239
335 336 336 336 337 338 339 339 339 339 339 340 341 342 343 343 343 343 342 341 340 339 339 339 339 339 340 340 338 335 332 330 329 328 327 327 326 323 320 316 313 309 304 299 296 294 292 290 286 283 281 280 279 278 276 274 273 272 272 272 272 271 271 271 269 266 262 259 256 254 254 253 252 252 251 249 248 247 246 246 245 245 244 243 241
334 335 335 335 336 337 337 338 338 338 338 339 340 341 342 342 342 342 342 341 340 339 338 338 338 338 338 338 338 336 333 331 328 327 326 325 325 324 321 318 315 311 307 303 298 295 292 290 288 284 281 278 277 277 276 275 273 272 272 271 271 270 270 269 269 269 268 265 262 259 256 255 253 252 251 250 249 248 247 246 246 245 245 244 243
333 333 333 334 335 336 336 336 337 337 337 338 339 340 340 340 341 341 341 341 340 339 338 337 336 336 336 336 336 336 334 331 329 326 325 324 323 322 321 319 316 312 309 305 301 297 293 291 289 287 284 281 277 276 275 275 274 273 271 271 270 270 269 268 268 267 267 267 266 264 261 259 257 256 254 252 251 250 249 247 246 246 245 245 244
332 332 332 333 334 335 335 335 335 336 336 336 337 338 339 339 339 340 340 341 340 339 337 336 335 335 335 335 335 335 333 331 329 326 324 322 321 320 320 319 316 313 310 307 303 299 296 292 290 288 286 284 280 277 274 273 273 273 272 271 270 269 269 268 267 266 265 265 265 264 264 262 261 259 257 256 254 252 251 250 248 247 246 245 245
331 331 331 331 333 333 334 334 334 334 335 335 336 337 337 337 338 339 339 340 340 339 337 336 334 334 334 334 334 334 333 331 329 327 324 322 320 319 318 317 316 314 311 307 304 301 298 294 291 288 287 285 283 281 277 274 272 272 272 271 269 269 268 268 267 266 265 264 263 263 263 262 262 260 259 257 255 254 252 251 249 247 246 245 245
329 329 330 330 331 332 333 333 333 333 334 334 335 335 336 336 336 337 338 339 339 339 338 336 334 333 333 332 332 333 332 331 329 327 324 322 319 317 316 316 315 314 312 308 305 302 299 296 293 290 287 285 283 282 280 277 273 271 270 270 269 268 267 267 267 267 266 265 264 263 262 262 262 261 260 259 258 256 254 252 251 249 247 246 245
328 328 328 329 330 331 331 332 332 332 333 333 333 334 334 335 335 336 337 338 338 338 338 336 334 332 332 332 331 331 331 330 329 327 324 322 319 317 315 314 313 313 312 309 306 303 299 296 294 291 288 286 283 281 280 278 276 272 270 268 268 268 267 266 265 265 266 266 265 264 263 262 262 261 261 261 261 260 258 256 254 251 249 247 246
327 327 327 328 329 329 330 331 331 331 331 332 332 333 333 333 334 334 335 336 337 338 337 336 334 332 331 331 331 330 330 330 329 327 324 322 319 316 314 313 312 311 311 309 307 304 300 296 293 291 289 287 284 281 279 278 277 275 272 269 267 267 266 265 265 264 263 264 264 265 264 263 262 261 261 261 261 261 261 259 257 255 253 250 248
326 326 327 327 328 328 329 330 330 330 330 331 331 331 332 332 333 333 334 335 336 337 336 335 334 332 331 331 330 330 329 329 328 326 324 322 319 316 314 312 310 309 309 308 307 305 302 298 294 290 289 287 285 283 280 277 276 275 273 271 268 266 265 265 265 264 263 262 262 263 263 263 263 262 260 259 259 259 259 259 258 256 255 253 250
325 325 326 327 327 328 328 328 329 329 330 330 330 331 331 331 332 332 333 334 335 335 335 335 334 332 331 330 330 329 329 328 327 326 324 321 319 316 314 311 309 308 307 307 306 305 303 300 296 292 288 286 285 283 281 279 276 274 272 271 269 267 265 264 264 264 263 262 261 261 261 261 261 262 261 260 258 257 256 256 255 254 253 251 250
325 325 326 326 326 326 327 328 328 329 329 329 329 330 330 330 331 331 332 333 334 334 334 334 333 331 330 329 328 328 328 327 326 325 323 321 318 315 313 311 309 307 306 305 305 304 303 301 298 294 290 286 284 282 281 280 278 275 272 270 269 267 266 264 262 262 262 262 261 260 259 259 259 259 259 259 259 257 256 254 253 253 252 250 248
325 325 325 325 325 326 326 327 327 328 328 328 329 329 329 329 330 330 331 331 332 333 333 333 332 330 329 328 328 327 327 326 325 324 322 320 318 315 312 310 308 307 305 304 304 303 302 301 298 295 292 288 284 282 280 279 278 277 274 271 268 267 265 263 261 261 260 261 260 260 258 258 257 257 257 257 258 258 257 256 254 253 252 251 250